Home > Weather > Schmallenberg > Past weeks

Flag for Germany Past Weather in Schmallenberg, North Rhine-Westphalia, Germany — Yesterday and Last 2 Weeks

Now
63 °F

Scattered clouds.


Feels Like: 63 °F
Forecast: 50 / 63 °F
Wind: 10 mph from Southwest

Location: Hessen

Current Time: Jul 1, 2016 at 12:04:50 PM

Latest Report: Jul 1, 2016 at 11:20 AM


Visibility: N/A

Pressure: 30.01 "Hg

Humidity: 88%

Dew Point: 59 °F

Location of SchmallenbergLocation

Past Weather in Schmallenberg — Graph

°F

Schmallenberg Temperature Yesterday

Maximum temperature yesterday: 64 °F (at 1:50 PM)
Minimum temperature yesterday: 55 °F (at 7:20 AM)
Average temperature yesterday: 61 °F

High & Low Weather Summary for the Past Weeks

 TemperatureHumidityPressure
High84 °F (Jun 23, 3:20 PM)100% (Jun 16, 10:50 AM)30.27 "Hg (Jun 16, 10:50 AM)
Low48 °F (Jun 19, 7:20 AM)43% (Jun 29, 3:20 PM)29.62 "Hg (Jun 16, 6:20 PM)
Average61 °F82%30.04 "Hg
* Reported Jun 16 10:20 AM — Jul 1 10:50 AM, Schmallenberg, Weather by CustomWeather, © 2016

Note: Actual official high and low records may vary slightly from our data, if they occured in-between our weather recording intervals... More about our weather records

Advertising

Schmallenberg Weather History for the Previous 24 Hours

Scroll right to see more
 ConditionsComfort  
Time TempWeatherWind HumidityBarometerVisibility
10:50 AM
Fri, Jul 1
63 °FBroken clouds.15 mph88%30.01 "HgN/A
10:20 AM63 °FScattered clouds.13 mph88%30.01 "HgN/A
9:50 AM61 °FPartly sunny.13 mph94%30.01 "HgN/A
9:20 AM61 °FScattered showers. Scattered clouds.14 mph94%30.01 "HgN/A
8:50 AM61 °FScattered clouds.13 mph94%30.01 "HgN/A
8:20 AM61 °FScattered clouds.13 mph94%30.01 "HgN/A
7:50 AM59 °FLight rain. Broken clouds.12 mph100%30.01 "HgN/A
7:20 AM59 °FBroken clouds.9 mph100%30.01 "HgN/A
8:50 PM
Thu, Jun 30
63 °FScattered showers. Broken clouds.9 mph77%29.98 "HgN/A
8:20 PM63 °FScattered showers. Partly sunny.14 mph77%29.98 "HgN/A
7:50 PM63 °FPassing clouds.14 mph77%29.98 "HgN/A
7:20 PM63 °FScattered showers. Partly sunny.14 mph77%29.98 "HgN/A
6:50 PM63 °FPartly sunny.14 mph77%29.98 "HgN/A
6:20 PM63 °FPartly sunny.9 mph77%29.98 "HgN/A
5:50 PM63 °FPartly sunny.14 mph77%29.98 "HgN/A
5:20 PM63 °FPartly sunny.12 mph77%29.98 "HgN/A
4:50 PM63 °FBroken clouds.15 mph73%29.98 "HgN/A
4:20 PM64 °FPartly sunny.14 mph73%29.98 "HgN/A
3:50 PM63 °FPartly sunny.15 mph73%29.98 "HgN/A
3:20 PM61 °FLight rain. Broken clouds.9 mph77%29.98 "HgN/A
2:50 PM64 °FBroken clouds.13 mph73%29.98 "HgN/A
2:20 PM63 °FBroken clouds.12 mph73%29.98 "HgN/A
1:50 PM64 °FBroken clouds.13 mph68%29.98 "HgN/A
1:20 PM63 °FBroken clouds.13 mph73%29.98 "HgN/A
12:50 PM63 °FPartly sunny.12 mph73%29.98 "HgN/A
12:20 PM61 °FPartly sunny.12 mph77%29.98 "HgN/A
Weather by CustomWeather, © 2016

See weather overviewHow to use our weather pages